Time,TemperatureF,DewpointF,PressureIn,WindDirection,WindDirectionDegrees,WindSpeedMPH,WindSpeedGustMPH,Humidity,HourlyPrecipIn,Conditions,Clouds,dailyrainin,SoftwareType,DateUTC
2013-04-06 00:03:00,33.3,19.0,29.88,West,268,8.0,12.0,55,0.00,,,0.00,weatherlink.com 1.10,2013-04-06 04:03:00,
2013-04-06 00:18:00,33.1,16.0,29.89,NW,304,9.0,15.0,50,0.00,,,0.00,weatherlink.com 1.10,2013-04-06 04:18:00,
2013-04-06 00:33:00,32.8,16.0,29.89,WNW,298,4.0,11.0,50,0.00,,,0.00,weatherlink.com 1.10,2013-04-06 04:33:00,
2013-04-06 00:48:00,32.5,16.0,29.90,West,273,5.0,17.0,50,0.00,,,0.00,weatherlink.com 1.10,2013-04-06 04:48:00,
2013-04-06 01:03:00,32.2,15.0,29.91,WNW,288,7.0,14.0,49,0.00,,,0.00,weatherlink.com 1.10,2013-04-06 05:03:00,
2013-04-06 01:18:00,31.9,15.0,29.91,West,270,7.0,15.0,50,0.00,,,0.00,weatherlink.com 1.10,2013-04-06 05:18:00,
2013-04-06 01:33:00,31.8,15.0,29.91,NW,306,4.0,9.0,51,0.00,,,0.00,weatherlink.com 1.10,2013-04-06 05:33:00,
2013-04-06 01:48:00,31.5,14.0,29.92,West,277,2.0,13.0,49,0.00,,,0.00,weatherlink.com 1.10,2013-04-06 05:48:00,
2013-04-06 02:33:00,30.8,11.0,29.93,West,277,9.0,22.0,44,0.00,,,0.00,weatherlink.com 1.10,2013-04-06 06:33:00,
2013-04-06 03:04:00,30.3,10.0,29.95,West,271,10.0,22.0,43,0.00,,,0.00,weatherlink.com 1.10,2013-04-06 07:04:00,
2013-04-06 03:19:00,29.9,10.0,29.95,WNW,296,6.0,18.0,44,0.00,,,0.00,weatherlink.com 1.10,2013-04-06 07:19:00,
2013-04-06 03:34:00,29.4,10.0,29.95,West,279,8.0,17.0,44,0.00,,,0.00,weatherlink.com 1.10,2013-04-06 07:34:00,
2013-04-06 03:49:00,28.9,9.0,29.96,WSW,258,10.0,19.0,43,0.00,,,0.00,weatherlink.com 1.10,2013-04-06 07:49:00,
2013-04-06 04:04:00,28.6,9.0,29.98,NW,317,5.0,23.0,44,0.00,,,0.00,weatherlink.com 1.10,2013-04-06 08:04:00,
2013-04-06 04:19:00,28.4,9.0,29.98,WNW,284,9.0,22.0,44,0.00,,,0.00,weatherlink.com 1.10,2013-04-06 08:19:00,
2013-04-06 04:34:00,28.1,8.0,30.00,West,264,13.0,21.0,43,0.00,,,0.00,weatherlink.com 1.10,2013-04-06 08:34:00,
2013-04-06 05:04:00,27.7,10.0,30.02,NW,306,13.0,22.0,47,0.00,,,0.00,weatherlink.com 1.10,2013-04-06 09:04:00,
2013-04-06 05:19:00,26.0,16.0,30.05,West,266,13.0,22.0,66,0.00,,,0.00,weatherlink.com 1.10,2013-04-06 09:19:00,
2013-04-06 05:34:00,25.5,15.0,30.06,West,279,11.0,21.0,64,0.00,,,0.00,weatherlink.com 1.10,2013-04-06 09:34:00,
2013-04-06 05:51:00,25.4,11.0,30.08,NNW,327,15.0,23.0,55,0.00,,,0.00,weatherlink.com 1.10,2013-04-06 09:51:00,
2013-04-06 06:04:00,25.1,10.0,30.08,WNW,285,15.0,23.0,53,0.00,,,0.00,weatherlink.com 1.10,2013-04-06 10:04:00,
2013-04-06 06:19:00,24.9,11.0,30.09,NW,308,9.0,15.0,55,0.00,,,0.00,weatherlink.com 1.10,2013-04-06 10:19:00,
2013-04-06 06:34:00,24.8,11.0,30.09,WNW,288,9.0,18.0,55,0.00,,,0.00,weatherlink.com 1.10,2013-04-06 10:34:00,
2013-04-06 06:49:00,24.9,10.0,30.10,NW,321,5.0,20.0,53,0.00,,,0.00,weatherlink.com 1.10,2013-04-06 10:49:00,
2013-04-06 07:04:00,25.1,10.0,30.11,WNW,300,8.0,19.0,53,0.00,,,0.00,weatherlink.com 1.10,2013-04-06 11:04:00,
2013-04-06 07:19:00,25.4,10.0,30.12,NNW,338,8.0,17.0,52,0.00,,,0.00,weatherlink.com 1.10,2013-04-06 11:19:00,
2013-04-06 07:34:00,25.2,9.0,30.13,West,268,10.0,17.0,51,0.00,,,0.00,weatherlink.com 1.10,2013-04-06 11:34:00,
2013-04-06 07:49:00,25.5,9.0,30.14,North,350,9.0,15.0,50,0.00,,,0.00,weatherlink.com 1.10,2013-04-06 11:49:00,
2013-04-06 08:04:00,25.5,8.0,30.14,West,277,10.0,16.0,48,0.00,,,0.00,weatherlink.com 1.10,2013-04-06 12:04:00,
2013-04-06 08:19:00,25.7,8.0,30.15,NNW,328,11.0,25.0,48,0.00,,,0.00,weatherlink.com 1.10,2013-04-06 12:19:00,
2013-04-06 08:34:00,25.9,8.0,30.16,WNW,303,10.0,15.0,47,0.00,,,0.00,weatherlink.com 1.10,2013-04-06 12:34:00,
2013-04-06 08:49:00,26.0,8.0,30.15,NNW,339,6.0,20.0,46,0.00,,,0.00,weatherlink.com 1.10,2013-04-06 12:49:00,
2013-04-06 09:04:00,26.5,6.0,30.16,NW,309,6.0,23.0,42,0.00,,,0.00,weatherlink.com 1.10,2013-04-06 13:04:00,
2013-04-06 09:19:00,27.2,7.0,30.17,North,360,8.0,20.0,42,0.00,,,0.00,weatherlink.com 1.10,2013-04-06 13:19:00,
2013-04-06 09:34:00,27.4,5.0,30.17,West,275,7.0,20.0,39,0.00,,,0.00,weatherlink.com 1.10,2013-04-06 13:34:00,
2013-04-06 09:49:00,27.6,5.0,30.18,WNW,284,16.0,24.0,38,0.00,,,0.00,weatherlink.com 1.10,2013-04-06 13:49:00,
2013-04-06 10:04:00,27.7,4.0,30.18,WNW,289,14.0,27.0,37,0.00,,,0.00,weatherlink.com 1.10,2013-04-06 14:04:00,
2013-04-06 10:19:00,28.5,5.0,30.19,WSW,238,7.0,20.0,37,0.00,,,0.00,weatherlink.com 1.10,2013-04-06 14:19:00,
2013-04-06 10:34:00,29.5,6.0,30.20,NNW,336,7.0,15.0,37,0.00,,,0.00,weatherlink.com 1.10,2013-04-06 14:34:00,
2013-04-06 10:50:00,29.6,6.0,30.20,WSW,245,9.0,20.0,36,0.00,,,0.00,weatherlink.com 1.10,2013-04-06 14:50:00,
2013-04-06 11:05:00,30.5,8.0,30.20,West,274,5.0,19.0,38,0.00,,,0.00,weatherlink.com 1.10,2013-04-06 15:05:00,
2013-04-06 11:20:00,30.6,6.0,30.21,WNW,283,6.0,22.0,35,0.00,,,0.00,weatherlink.com 1.10,2013-04-06 15:20:00,
2013-04-06 11:35:00,31.1,7.0,30.21,West,281,9.0,17.0,36,0.00,,,0.00,weatherlink.com 1.10,2013-04-06 15:35:00,
2013-04-06 11:50:00,31.9,6.0,30.21,West,266,10.0,18.0,34,0.00,,,0.00,weatherlink.com 1.10,2013-04-06 15:50:00,
2013-04-06 12:05:00,32.9,8.0,30.21,NW,313,6.0,14.0,35,0.00,,,0.00,weatherlink.com 1.10,2013-04-06 16:05:00,
2013-04-06 12:20:00,32.7,6.0,30.22,WSW,242,13.0,25.0,33,0.00,,,0.00,weatherlink.com 1.10,2013-04-06 16:20:00,
2013-04-06 12:35:00,33.8,7.0,30.21,NW,322,5.0,19.0,32,0.00,,,0.00,weatherlink.com 1.10,2013-04-06 16:35:00,
2013-04-06 12:50:00,33.8,6.0,30.21,West,269,4.0,15.0,31,0.00,,,0.00,weatherlink.com 1.10,2013-04-06 16:50:00,
2013-04-06 13:07:00,34.6,7.0,30.21,WNW,291,5.0,14.0,31,0.00,,,0.00,weatherlink.com 1.10,2013-04-06 17:07:00,
2013-04-06 13:20:00,34.8,5.0,30.22,WNW,291,10.0,18.0,29,0.00,,,0.00,weatherlink.com 1.10,2013-04-06 17:20:00,
2013-04-06 13:35:00,35.4,7.0,30.21,West,274,12.0,16.0,31,0.00,,,0.00,weatherlink.com 1.10,2013-04-06 17:35:00,
2013-04-06 13:50:00,35.8,6.0,30.21,NW,304,4.0,15.0,29,0.00,,,0.00,weatherlink.com 1.10,2013-04-06 17:50:00,
2013-04-06 14:05:00,36.6,7.0,30.22,WNW,286,12.0,16.0,29,0.00,,,0.00,weatherlink.com 1.10,2013-04-06 18:05:00,
2013-04-06 14:20:00,37.1,8.0,30.21,WNW,300,8.0,12.0,30,0.00,,,0.00,weatherlink.com 1.10,2013-04-06 18:20:00,
2013-04-06 14:35:00,37.5,6.0,30.21,WNW,290,3.0,12.0,27,0.00,,,0.00,weatherlink.com 1.10,2013-04-06 18:35:00,
2013-04-06 14:50:00,38.1,8.0,30.20,WNW,288,11.0,13.0,28,0.00,,,0.00,weatherlink.com 1.10,2013-04-06 18:50:00,
2013-04-06 15:05:00,38.3,8.0,30.20,West,275,7.0,13.0,29,0.00,,,0.00,weatherlink.com 1.10,2013-04-06 19:05:00,
2013-04-06 15:20:00,38.8,9.0,30.19,NW,306,3.0,11.0,29,0.00,,,0.00,weatherlink.com 1.10,2013-04-06 19:20:00,
2013-04-06 15:35:00,39.0,9.0,30.18,WNW,287,7.0,13.0,29,0.00,,,0.00,weatherlink.com 1.10,2013-04-06 19:35:00,
2013-04-06 15:50:00,39.7,9.0,30.18,West,277,8.0,12.0,28,0.00,,,0.00,weatherlink.com 1.10,2013-04-06 19:50:00,
2013-04-06 16:05:00,39.6,10.0,30.18,West,273,6.0,11.0,30,0.00,,,0.00,weatherlink.com 1.10,2013-04-06 20:05:00,
2013-04-06 16:20:00,40.3,10.0,30.18,West,281,4.0,9.0,29,0.00,,,0.00,weatherlink.com 1.10,2013-04-06 20:20:00,
2013-04-06 16:35:00,39.8,8.0,30.18,West,260,9.0,14.0,27,0.00,,,0.00,weatherlink.com 1.10,2013-04-06 20:35:00,
2013-04-06 16:50:00,39.5,6.0,30.19,West,271,10.0,17.0,25,0.00,,,0.00,weatherlink.com 1.10,2013-04-06 20:50:00,
2013-04-06 17:05:00,39.6,6.0,30.19,West,270,9.0,16.0,25,0.00,,,0.00,weatherlink.com 1.10,2013-04-06 21:05:00,
2013-04-06 17:20:00,39.6,6.0,30.20,West,266,7.0,12.0,25,0.00,,,0.00,weatherlink.com 1.10,2013-04-06 21:20:00,
2013-04-06 17:36:00,39.6,8.0,30.21,WNW,292,6.0,13.0,27,0.00,,,0.00,weatherlink.com 1.10,2013-04-06 21:36:00,
2013-04-06 17:51:00,39.4,6.0,30.21,WNW,286,7.0,14.0,25,0.00,,,0.00,weatherlink.com 1.10,2013-04-06 21:51:00,
2013-04-06 18:06:00,39.4,5.0,30.22,West,277,7.0,10.0,24,0.00,,,0.00,weatherlink.com 1.10,2013-04-06 22:06:00,
2013-04-06 18:21:00,39.3,6.0,30.24,WNW,285,5.0,8.0,25,0.00,,,0.00,weatherlink.com 1.10,2013-04-06 22:21:00,
2013-04-06 18:36:00,39.1,5.0,30.25,West,275,4.0,7.0,24,0.00,,,0.00,weatherlink.com 1.10,2013-04-06 22:36:00,
2013-04-06 18:51:00,38.6,6.0,30.25,West,277,4.0,7.0,26,0.00,,,0.00,weatherlink.com 1.10,2013-04-06 22:51:00,
2013-04-06 19:51:00,33.2,9.0,30.28,West,279,0.0,0.0,37,0.00,,,0.00,weatherlink.com 1.10,2013-04-06 23:51:00,
2013-04-06 20:36:00,28.8,11.0,30.30,West,279,0.0,0.0,47,0.00,,,0.00,weatherlink.com 1.10,2013-04-07 00:36:00,
2013-04-06 20:51:00,28.2,12.0,30.31,West,279,0.0,0.0,51,0.00,,,0.00,weatherlink.com 1.10,2013-04-07 00:51:00,
2013-04-06 21:06:00,27.6,14.0,30.30,West,279,0.0,0.0,57,0.00,,,0.00,weatherlink.com 1.10,2013-04-07 01:06:00,
2013-04-06 21:21:00,27.4,14.0,30.31,West,279,0.0,0.0,58,0.00,,,0.00,weatherlink.com 1.10,2013-04-07 01:21:00,
2013-04-06 21:36:00,26.9,15.0,30.32,West,279,1.0,2.0,62,0.00,,,0.00,weatherlink.com 1.10,2013-04-07 01:36:00,
2013-04-06 21:51:00,27.0,13.0,30.32,West,279,0.0,0.0,57,0.00,,,0.00,weatherlink.com 1.10,2013-04-07 01:51:00,
2013-04-06 22:06:00,26.8,13.0,30.33,West,279,0.0,1.0,57,0.00,,,0.00,weatherlink.com 1.10,2013-04-07 02:06:00,
2013-04-06 22:21:00,26.3,13.0,30.33,West,279,0.0,0.0,58,0.00,,,0.00,weatherlink.com 1.10,2013-04-07 02:21:00,
2013-04-06 22:36:00,26.0,16.0,30.32,West,279,0.0,0.0,66,0.00,,,0.00,weatherlink.com 1.10,2013-04-07 02:36:00,
2013-04-06 22:51:00,25.6,14.0,30.33,West,279,0.0,0.0,63,0.00,,,0.00,weatherlink.com 1.10,2013-04-07 02:51:00,
2013-04-06 23:06:00,25.2,15.0,30.32,West,279,0.0,0.0,66,0.00,,,0.00,weatherlink.com 1.10,2013-04-07 03:06:00,
2013-04-06 23:21:00,25.1,16.0,30.32,West,279,0.0,0.0,67,0.00,,,0.00,weatherlink.com 1.10,2013-04-07 03:21:00,
2013-04-06 23:36:00,24.5,16.0,30.32,West,279,0.0,0.0,69,0.00,,,0.00,weatherlink.com 1.10,2013-04-07 03:36:00,
2013-04-06 23:51:00,24.0,16.0,30.32,West,279,0.0,0.0,70,0.00,,,0.00,weatherlink.com 1.10,2013-04-07 03:51:00,